    Orbital elements:
        C/2003 L2 (LINEAR)
    Epoch 2004 Feb. 5.0 TT = JDT 2453040.5
    T 2004 Jan. 19.24758 TT                                 MPC
    q   2.8644314            (2000.0)            P               Q
    z  +0.0065067      Peri.  119.86053     +0.08883254     -0.12251310
     +/-0.0000162      Node   273.55573     +0.12109810     +0.98637328
    e   0.9813620      Incl.   82.05031     +0.98865769     -0.10981028
    Residuals in seconds of arc
    030612 704  0.8-  0.1-    030708 785  0.9+  0.4-    030802 215  0.7-  1.0-
    030612 704  0.1-  0.6+    030708 785  0.7-  0.3-    030802 215  0.1+  0.1-
    030612 704 (2.9+  0.0 )   030708 H41  1.5-  0.5+    030802 215  0.1-  0.5-
    030612 620  0.2-  0.6-    030708 H41  0.3-  0.5-    030802 232  0.4-  1.1+
    030612 620  0.6-  1.3-    030709 704  0.2-  0.1-    030803 H41  0.6-  0.1-
    030613 A50  0.0   0.2-    030709 704  0.2+  0.1+    030803 H41  0.7-  0.4+
    030613 A50  0.4-  0.1-    030709 704  0.1-  0.7+    030803 349  0.4-  1.2-
    030613 A50  1.0+  0.6-    030709 H41  0.2-  0.6+    030803 349  0.3-  1.0-
    030613 A50  0.5+  1.6+    030709 704  0.5+  0.3+    030803 349  1.0+  0.1-
    030613 176  0.3+  0.5-    030709 H41  0.3-  0.4+    030803 349  0.7-  0.2+
    030613 176  0.4+  0.4-    030709 704  0.1+  0.5+    030804 H41  0.1+  0.1-
    030613 118 (3.0+  1.0+)   030711 H41  0.1+  0.2-    030804 H41  0.1+  0.2-
    030613 176  0.6+  0.5-    030711 H41  0.6+  0.6-    030804 372  0.7-  1.7+
    030613 176  0.8+  0.5-    030711 H41  0.6-  0.2-    030805 442  0.8+  0.1+
    030613 118  0.4+  0.8+    030711 H41  0.1+  0.2-    030806 939  0.3-  0.0
    030613 118  1.2-  1.8+    030712 118  0.3+  0.2+    030806 939  0.2-  0.2+
    030614 649  0.5-  0.3+    030712 118  0.1+  0.5+    030806 939  0.1-  0.1-
    030614 649  0.0   0.2-    030712 118  0.1+  0.4+    030806 213  0.6+  0.6-
    030614 649  0.1-  0.1+    030712 213  0.0   0.8-    030806 213  0.3-  0.2+
    030616 213  1.0-  1.5+    030712 213  0.3+  0.4+    030806 213  0.3+  0.8-
    030616 213  1.3-  1.6-    030712 213  1.3-  1.6+    030807 H41  0.6-  0.3-
    030616 213 (1.6+  3.5+)   030714 H41 (2.1-  0.9-)   030807 H41  0.6+  0.2-
    030616 118  0.0   0.1-    030714 H41  0.3+  0.1-    030807 A46  1.5-  1.9+
    030616 118  0.3+  0.3-    030714 H41  0.1+  1.3+    030807 A46  0.1-  0.1+
    030616 118  1.5+  0.1-    030715 H41  0.5+  0.1-    030807 A46  0.5+  1.3+
    030618 620  0.4-  0.1-    030715 H41  0.6-  0.1+    030807 A46  0.3-  0.8-
    030618 620  0.8-  0.2-    030715 H41  0.7-  1.3+    030807 A46  0.2-  0.2+
    030618 620  0.8-  0.4-    030716 H41  0.1-  0.1-    030807 A46 (2.5+  0.7-)
    030620 H41  1.0-  0.4-    030716 H41  0.5+  0.2-    030810 A46  0.8-  1.3+
    030620 H41  0.2+  1.6+    030716 H41  0.1-  0.0     030810 A46  0.9-  0.2-
    030620 118  1.0-  0.1+    030717 118  1.3+  0.6+    030810 A46  0.1-  0.0
    030620 118  0.2+  0.2+    030717 118  0.3+  0.1-    030810 A46  0.4+  1.2-
    030620 118  0.2-  0.1+    030717 H41  0.5+  0.2-    030810 A46  0.2+  0.6-
    030620 118  0.0   0.3-    030717 H41  0.3-  0.6+    030810 A46  0.9+  0.1-
    030620 118  0.1-  0.3-    030717 704  0.1-  0.1+    030815 A46  0.9+  0.9-
    030621 130  1.1-  0.4-    030717 704  0.8+  0.3-    030815 A46  0.1+  1.6-
    030621 130  0.7-  0.7-    030717 704  0.1-  0.1+    030815 A46  0.2-  1.8-
    030621 215  0.7-  1.1-    030717 704  0.6+  0.2+    030815 A46  0.7+  0.3-
    030621 215  0.4-  0.2+    030718 204  0.3+  0.2-    030815 A46  1.0-  0.4-
    030621 215  0.5-  0.5-    030718 204  0.4+  0.1-    030815 A46  0.5-  1.8-
    030621 130  0.3-  0.3-    030718 204  0.2-  0.2+    030816 785 (2.0-  0.6+)
    030622 204  0.5-  0.0     030718 H41  0.8+  0.5-    030816 785  0.7+  0.1+
    030622 204  0.2-  0.1-    030718 H41  0.3-  0.1+    030816 785  0.3-  0.1-
    030622 204  0.4-  0.2+    030718 H41  0.5+  0.1-    030816 H41  0.5-  0.8+
    030622 204  0.2-  0.5-    030718 442  1.3+  0.6+    030816 H41  0.5-  0.8+
    030622 204  0.2+  0.1-    030720 232  1.4+  0.1+    030816 A46  0.3-  1.3+
    030622 H41  0.5+  0.9+    030720 232  0.2+  1.7+    030816 A46  0.4-  0.2+
    030622 H41  0.0   0.2-    030724 372  0.1+  1.7-    030816 A46  0.5+  0.7+
    030622 213  0.2+  0.9-    030725 213  0.5+  1.2-    030816 A46  0.9+  1.0+
    030622 213  0.3+  0.6-    030725 213  0.0   0.3-    030816 A46  1.3+  0.2+
    030623 H41  0.5-  0.1+    030725 213  0.0   0.2+    030816 A46  1.3+  0.4+
    030624 785 (8.0+  1.9-)   030726 232  0.6-  0.3-    030817 H41  0.2-  0.2+
    030624 785  1.3+  0.5-    030726 232  0.8+  0.9-    030817 H41  0.4+  0.2-
    030624 785  2.0+  0.6-    030728 H41  0.6+  0.2-    030817 232  0.9-  0.7+
    030624 H41 (3.6+  3.9+)   030728 H41  0.5+  0.1-    030817 232 (2.3+  2.7+)
    030625 H41  0.1+  0.3-    030728 H41  0.6+  0.5+    030817 232  1.0-  0.9+
    030625 H41  0.1+  0.3+    030729 A02  1.3-  0.0     030818 785 (2.1+  2.2-)
    030625 372  1.0+  1.2-    030729 A02  0.8-  0.9-    030818 785  0.2+  0.5+
    030625 118  0.2+  0.3+    030729 A02  0.4-  1.3-    030818 785  0.7+  0.2+
    030625 118  0.1-  0.4+    030729 A02  0.1+  0.4-    030818 785  1.1+  0.9+
    030625 118  0.0   0.2+    030729 A02  0.0   0.4-    030818 213  0.2+  0.5+
    030625 118  0.3+  0.0     030729 A02  0.3-  0.4-    030818 213  1.3+  1.0+
    030625 118  0.3-  0.5+    030730 785  0.6-  1.0+    030819 442  1.3-  1.0+
    030627 H41  0.8+  0.5+    030730 785 (0.4-  3.1+)   030819 442  1.1-  0.7-
    030627 H41  0.8+  0.9+    030730 340  0.3+  1.0-    030820 A46  1.2-  1.2-
    030628 J95  0.2-  0.4+    030730 340 (0.1+  2.1+)   030820 A46  0.4+  0.8-
    030628 J95  0.2-  0.2+    030730 340  0.3-  0.2-    030820 A46  0.6+  0.4-
    030628 J95  0.3-  0.2+    030730 A02  0.6+  0.7-    030820 A46  0.2+  1.2-
    030628 H41  0.8+  0.9+    030730 A02  0.5-  0.1-    030820 A46  0.2+  0.4-
    030628 H41  1.2+  0.4+    030730 A02  1.1-  0.1+    030820 A46  1.4+  0.7-
    030629 H41  1.5+  0.3-    030731 H41  0.8+  0.1-    030821 785 (1.8+  3.1-)
    030629 H41  0.8+  1.1+    030731 H41  0.3+  0.2-    030821 785 (1.9-  2.7-)
    030702 785  0.1+  1.3+    030731 A02  0.1-  0.7-    030822 A46  1.0-  0.4-
    030702 785 (1.3-  2.7-)   030731 A02  0.2-  0.5-    030822 A46  0.7-  0.0
    030703 H41  0.7-  0.3+    030731 A02  0.3-  0.3-    030822 A46  0.1-  0.2-
    030703 H41  0.1+  0.4+    030801 H41  0.2-  0.4+    030822 A46  0.0   0.5+
    030703 H41  0.6-  0.1-    030801 H41  0.3-  0.4+    030822 A46  0.4-  0.3+
    030704 H41  0.1+  1.3+    030801 A02  0.8-  0.0     030822 A46  0.4+  0.2-
    030704 H41 (2.1-  2.8+)   030801 A02  0.6-  0.2+    030822 213  1.5+  0.2-
    030705 H41  0.4-  0.5-    030801 A02  0.7-  0.5+    030822 213  0.4+  0.6+
    030705 H41  0.2+  0.1-    030801 213 (2.3-  1.6-)   030822 213  0.0   0.1-
    030706 H41  0.4+  0.2+    030801 213  1.4-  1.4-    030824 A32  1.0+  0.2-
    030706 H41  0.6-  0.7+    030802 232  0.2+  0.7-    030824 A32  0.7+  0.6+
    030706 H41  0.4+  0.6+    030802 232  0.2+  0.0     030824 A32  0.4+  0.3+
    030707 699  0.2-  0.7-    030802 232  0.2+  0.2-    030824 A32  0.1+  0.3-
    030707 699  0.1+  0.2-    030802 H41  0.5+  0.4-    030825 785  0.1+  1.0+
    030707 H41  1.2+  1.6-    030802 H41  0.6+  0.1-    030825 785  0.9-  0.5+
    030707 699  0.1+  1.0+    030802 360  0.2-  0.3+    030826 785  1.6-  1.3+
    030707 699  0.2-  0.8-    030802 360  0.2-  0.0     030826 785  0.6-  0.9+
    
         The "original" and "future" barycentric values of 1/a are +0.006377
    and +0.006831 (+/- 0.000016) AU**-1, respectively.
    
    Brian G. Marsden             (C) Copyright 2003 MPC           M.P.E.C. 2003-Q38
    

    Read MPEC 2003-Q37 Read MPEC 2003-Q39


    MPEC number:

    Enter an MPEC number in one of the following forms:

    • 1997-B01 (the full form)
    • J97B01 (the packed version of the full form)
    • B01 (the abbreviated form)